ONEWEB-0235 (48771 NORAD) Tracking and Keplerian Element Data

This shows tracking and keplerian element data for the satellite.

Feedback or suggestion? Click here.




ElementValue
Catalog48771
NameONEWEB-0235
Epoch Orbit187
Epoch Day170.58334491
Epoch Year2021
RAAN268.9025
Inclination87.4003
Eccentricity0.0006231
Argument of Perigee178.9518
Mean Anonmoly59.1271
Mean Motion15.26963704
Decay Rate-0.00937492
L11 48771U 21045E 21170.58334491 -.00937492 00000-0 -38283-1 0 9998
L22 48771 87.4003 268.9025 0006231 178.9518 59.1271 15.26963704 1878

Live tracking and technical data element details for ONEWEB-0235 (NORAD 48771). ONEWEB-0235 can be tracked NOW for your location showing map with azimuth and elevation plus other details from your city location.

Track the satellite on the map from your city or location and see movement details for azimuth, elevation, latitude, longitude, range, height, and movement on the map or in text.







IsCatalogInMostPopularTable: catalog: 48771, numindb: 3
Update: records affected: 1



GetName: 48771 ONEWEB-0235

Hit Count: updated at: Mon, 21 Jun 2021 04:49:50 GMT